This is the latest recevied weather packets stored in our database for station/object KE8GJZ-2. If no packets are shown the sender has not sent any weather packets the latest 10 day(s).
| Time | Temp. | Humidity | Pressure | Rain* | Wind** | Luminosity | Snow |
|---|---|---|---|---|---|---|---|
| 1778181716 | 11.67° C | 51% | 1012.5 hPa | 0 mm | - | 416 W/m² | - |
| 1778181411 | 11.11° C | 52% | 1012.6 hPa | 0 mm | - | 359 W/m² | - |
| 1778181109 | 11.67° C | 47% | 1012.5 hPa | 0 mm | - | 298 W/m² | - |
| 1778180806 | 11.67° C | 52% | 1012.7 hPa | 0 mm | - | 550 W/m² | - |
| 1778180504 | 11.67° C | 51% | 1012.5 hPa | 0 mm | - | 658 W/m² | - |
| 1778180202 | 11.11° C | 50% | 1012.5 hPa | 0 mm | - | 649 W/m² | - |
| 1778179899 | 11.67° C | 48% | 1012.7 hPa | 0 mm | - | 663 W/m² | - |
| 1778179596 | 11.67° C | 49% | 1012.7 hPa | 0 mm | - | 672 W/m² | - |
| 1778179294 | 11.11° C | 50% | 1012.6 hPa | 0 mm | - | 687 W/m² | - |
| 1778178990 | 11.67° C | 50% | 1012.7 hPa | 0 mm | - | 686 W/m² | - |
| 1778178687 | 11.11° C | 56% | 1013 hPa | 0 mm | - | 683 W/m² | - |
| 1778178384 | 11.67° C | 47% | 1012.9 hPa | 0 mm | - | 704 W/m² | - |
| 1778178080 | 11.67° C | 53% | 1013 hPa | 0 mm | - | 697 W/m² | - |
| 1778177777 | 11.11° C | 51% | 1013.1 hPa | 0 mm | - | 662 W/m² | - |
| 1778177473 | 10.56° C | 54% | 1013.1 hPa | 0 mm | - | 695 W/m² | - |
| 1778177169 | 10.56° C | 58% | 1013.1 hPa | 0 mm | - | 700 W/m² | - |
| 1778176867 | 10.56° C | 57% | 1013.2 hPa | 0 mm | - | 710 W/m² | - |
| 1778176563 | 10.56° C | 54% | 1013.2 hPa | 0 mm | - | 711 W/m² | - |
| 1778176260 | 10° C | 55% | 1013.2 hPa | 0 mm | - | 714 W/m² | - |
| 1778175957 | 10° C | 56% | 1013.3 hPa | 0 mm | - | 707 W/m² | - |
| 1778175655 | 9.44° C | 57% | 1013.4 hPa | 0 mm | - | 709 W/m² | - |
| 1778175352 | 10° C | 56% | 1013.5 hPa | 0 mm | - | 707 W/m² | - |
| 1778175049 | 10° C | 57% | 1013.5 hPa | 0 mm | - | 692 W/m² | - |
| 1778174744 | 8.89° C | 56% | 1013.6 hPa | 0 mm | - | 693 W/m² | - |
| 1778174442 | 8.89° C | 56% | 1013.8 hPa | 0 mm | - | 682 W/m² | - |
* Rain latest hour (hover to see other rain measurements)
** Current wind speed in m/s (hover to see current wind gust speed)